Location: Bittelbronn
(48.4454°N, 8.5870°E)
Time: 02:26:10
(UTC+00:00)

Daily predictions for brighter satellites

Satellite Brightness Start Highest point End
(mag) Time Altitude Azimuth Time Altitude Azimuth Time Altitude Azimuth
Cosmos 2228 Rocket 3.0 00:05:20 52° S 00:06:25 88° E 00:10:56 10° N
Meteor 1-21 4.4 00:04:42 36° SSE 00:06:59 65° E 00:12:41 10° NNE
Helios 1A Rocket 3.2 00:07:44 39° SE 00:08:52 56° ENE 00:12:40 10° N
Cosmos 2082 Rocket 2.3 00:07:01 38° S 00:09:06 64° ESE 00:14:47 10° NNE
Meteor 1-12 Rocket 4.4 00:03:33 10° NNW 00:09:23 69° W 00:11:47 37° SSW
Cosmos 1833 Rocket 3.5 00:08:10 21° WSW 00:11:30 44° NW 00:16:53 10° NNE
BREEZE-M DEB (TANK) 3.2 00:13:11 49° SW 00:13:29 50° SSW 00:21:05 10° SE
Cosmos 724 4.3 00:12:02 31° SW 00:15:02 76° NW 00:20:53 10° NE
CZ-2D R/B 4.2 00:13:56 10° NE 00:17:47 19° E 00:21:24 11° SE
Cosmos 2360 Rocket 4.3 00:16:24 10° N 00:21:05 25° NE 00:25:45 10° E
USA 267 3.4 00:17:51 10° NE 00:24:23 75° NNW 00:30:21 13° WSW
DELTA 2 R/B (1) 4.3 00:26:15 31° SSE 00:26:15 31° SSE 00:30:33 10° ESE
Cosmos 1455 3.1 00:26:48 10° N 00:30:04 38° ENE 00:31:18 27° ESE
Cosmos 1733 Rocket 3.3 00:26:45 10° NNW 00:30:58 52° W 00:31:55 43° SW
Cosmos 841 Rocket 4.0 00:26:55 10° NNW 00:32:06 59° ENE 00:36:21 15° SE
Resurs 1-4 Rocket 3.7 00:28:20 10° NE 00:32:40 25° E 00:36:00 14° SE
Cosmos 1400 Rocket 3.4 00:32:16 39° WSW 00:33:10 46° WNW 00:37:03 10° N
Nimbus 7 Rocket 4.4 00:27:42 10° NNE 00:33:44 84° WNW 00:36:43 32° SSW
GP-B 4.3 00:30:02 10° NNW 00:33:49 29° WNW 00:35:02 25° WSW
H-2A R/B 3.8 00:33:26 10° N 00:37:02 25° WNW 00:38:59 18° W
Cosmos 2278 3.9 00:35:41 10° NNW 00:41:25 72° ENE 00:46:48 12° SE
NOSS 3-4 (A) 4.2 00:36:32 10° NW 00:43:07 45° WSW 00:47:10 26° S
NOSS 3-4 (C) 4.2 00:36:38 10° NW 00:43:13 46° WSW 00:47:19 25° S
Cosmos 1346 Rocket 2.9 00:40:49 10° NNW 00:44:37 54° W 00:45:17 46° SW
Cosmos 676 Rocket 4.0 00:42:47 35° SSW 00:45:06 87° ESE 00:50:29 10° NNE
Cosmos 2251 Rocket 4.5 00:44:26 22° WSW 00:47:15 38° WNW 00:52:12 10° N
SL-08 R/B 4.4 00:44:05 30° S 00:47:21 87° W 00:53:33 10° N
Cosmos 468 Rocket 4.2 00:42:33 10° NNW 00:47:44 54° WSW 00:49:48 33° SSW
Okean 2 3.2 00:49:49 43° S 00:51:02 85° E 00:55:02 10° N
Cosmos 1954 Rocket 4.1 00:48:42 32° SW 00:51:10 72° WNW 00:56:30 10° NNE
Cosmos 1745 Rocket 4.2 00:48:37 24° S 00:52:26 67° E 00:58:40 10° NNE
CZ-2C R/B 3.5 00:48:00 10° SE 00:52:53 46° ENE 00:57:50 10° N
Meteor 1-4 Rocket 2.2 00:53:08 56° SE 00:53:26 60° E 00:56:23 10° NNE
Cosmos 1190 Rocket 4.5 00:51:10 28° SW 00:53:46 53° WNW 00:58:59 10° NNE
Cosmos 2333 Rocket 3.7 00:48:48 10° NNW 00:54:05 36° NE 00:59:21 10° ESE
Cosmos 1763 Rocket 4.4 00:52:17 10° NW 00:56:57 32° W 00:58:19 28° SW
Cosmos 2322 Rocket 3.0 00:53:34 10° NNW 00:59:05 51° NE 01:04:36 10° SE
Cosmos 1300 4.2 00:56:39 10° NW 00:59:18 20° W 00:59:22 20° W
Cosmos 1703 Rocket 3.6 00:58:55 33° S 01:00:51 78° E 01:05:18 10° NNE
USA 234 3.6 00:56:31 17° SSE 01:01:12 42° SW 01:07:23 10° WNW
BREEZE-M R/B 4.5 00:59:28 24° S 01:02:04 37° SE 01:14:14 10° ENE
Cosmos 1953 2.2 01:00:10 10° NNW 01:04:04 66° W 01:05:20 39° SSW
SL-8 R/B 3.9 01:00:42 10° W 01:05:15 46° SSW 01:09:49 10° SE
NPP 4.0 01:01:48 10° NNE 01:07:10 60° ESE 01:10:33 22° S
Aureole 3 4.3 01:09:14 21° W 01:09:32 22° WNW 01:11:57 10° NNW
Cosmos 1980 Rocket 3.4 01:08:07 10° NW 01:12:38 24° WSW 01:14:01 22° SW
Nadezhda 1 Rocket 4.0 01:07:29 10° NNW 01:13:54 73° W 01:18:17 21° S
Cosmos 1242 Rocket 3.2 01:13:26 27° SE 01:14:20 35° E 01:17:01 10° NNE
Cosmos 540 Rocket 4.4 01:10:56 10° NW 01:15:22 29° W 01:16:51 25° SW
Cosmos 1300 Rocket 3.7 01:12:54 10° N 01:17:14 69° E 01:20:24 18° SSE
ADEOS II 3.1 01:15:00 10° NNE 01:19:56 40° E 01:24:13 13° SSE
MOZ.5/SAFIR/RUBIN 5/SL-8 4.0 01:18:21 28° SSW 01:20:35 51° W 01:25:13 10° NNW
Cosmos 1408 3.3 01:21:25 22° SE 01:22:47 35° E 01:25:34 10° NNE
COSMOS 2406 3.8 01:19:32 20° WSW 01:23:15 49° NW 01:28:51 10° NNE
IDEFIX/ARIANE 42P 2.6 01:19:45 10° NNE 01:25:03 85° ESE 01:28:29 22° SSW
Lacrosse 5 rocket 1.1 01:21:19 10° WNW 01:25:24 66° SW 01:29:17 10° SE
ALOS 4.1 01:23:47 10° NE 01:27:36 25° E 01:31:25 10° SSE
EXPRESS MD2 3.4 01:27:55 32° S 01:28:27 35° SE 01:32:09 10° ENE
Okean 1-7 4.0 01:30:04 23° WSW 01:31:59 34° WNW 01:35:58 10° N
ATLAS 2AS CENTAUR R/B 3.5 01:33:48 10° NW 01:40:35 53° NE 01:47:05 10° ESE
Cosmos 1315 Rocket 3.4 01:39:37 25° SW 01:41:25 40° WNW 01:45:09 10° N
SJ 16-02 1.9 01:39:50 18° S 01:42:51 51° ESE 01:47:03 10° NNE
SL-16 R/B 2.3 01:37:58 10° NW 01:43:30 54° WSW 01:48:59 10° S
CZ-2C R/B 3.5 01:37:42 10° NNE 01:43:33 72° ESE 01:48:26 15° S
Cosmos 1850 Rocket 4.1 01:46:14 21° SW 01:49:52 70° WNW 01:55:09 10° NNE
Cosmos 2082 Rocket 3.7 01:48:50 10° WSW 01:53:38 28° NW 01:58:31 10° NNE
Cosmos 1709 Rocket 4.1 01:49:42 18° SSW 01:54:33 66° WNW 02:00:56 10° N
Cosmos 1741 Rocket 4.1 01:51:18 20° SW 01:54:59 67° WNW 02:00:15 10° NNE
SL-16 R/B 2.6 01:49:58 10° SSE 01:56:15 84° ENE 02:02:33 10° NNW
Cosmos 2219 Rocket 2.9 01:51:11 10° NNW 01:56:47 57° ENE 02:02:20 10° SE
Cosmos 1782 Rocket 4.2 01:52:55 10° NNW 01:57:00 38° W 01:59:39 19° SSW
Cosmos 2181 Rocket 4.1 01:51:13 10° N 01:57:38 85° E 02:03:55 10° S
CZ-2D R/B 2.2 01:52:52 10° N 01:58:20 72° WNW 02:02:42 16° SSW
Cosmos 1703 3.1 02:00:01 16° S 02:02:56 84° E 02:06:42 10° N
Meteor 1-28 Rocket 3.0 01:59:48 10° SSE 02:03:22 82° WSW 02:06:57 10° NNW
Cosmos 1455 3.9 02:02:13 10° NW 02:04:13 15° W 02:05:04 14° WSW
AQUA 3.9 01:59:50 10° NNE 02:04:35 78° ESE 02:08:57 12° S
COSMOS 2428 4.4 01:59:45 10° NNW 02:04:59 36° NE 02:10:12 10° ESE
Cosmos 2360 Rocket 2.2 01:59:58 10° NNW 02:05:39 72° WSW 02:11:17 10° SSE
Cosmos 968 Rocket 3.5 02:02:10 17° SSW 02:06:05 73° WNW 02:11:15 10° NNE
CRYOSAT 2 4.5 02:01:45 10° N 02:06:36 64° W 02:10:48 14° SSW
USA 267 4.3 02:00:49 10° ENE 02:06:57 45° N 02:13:05 10° WNW
Genesis I 2.9 02:05:37 20° SSW 02:07:59 80° SE 02:11:33 10° NE
Meteor 1-24 Rocket 4.0 02:02:47 10° S 02:08:46 81° E 02:14:46 10° NNE
RESURS DK-1 2.3 02:05:43 10° NNW 02:09:48 88° WSW 02:13:52 10° SSE
MSX 4.2 02:05:41 10° N 02:11:14 52° WNW 02:16:00 14° SW
DELTA 2 R/B (1) 4.4 02:06:59 12° WSW 02:11:18 29° SSW 02:16:01 10° SE
Resurs 1-4 Rocket 2.5 02:07:39 10° N 02:12:44 51° WNW 02:17:04 14° SW
SAR-Lupe-4 3.9 02:11:33 10° NNE 02:15:07 65° ESE 02:18:38 10° S
FENGYUN 3A 3.7 02:16:52 10° N 02:22:14 70° WNW 02:27:27 11° SSW
IRAS Rocket 4.3 02:17:18 10° NNE 02:22:51 79° ESE 02:28:19 10° SSW
Geosat 4.1 02:26:20 10° SE 02:31:21 84° ENE 02:36:24 10° NNW
CZ-2C R/B 3.6 02:29:15 11° SSW 02:33:22 27° W 02:37:45 10° NW
Cosmos 2221 Rocket 3.8 02:29:25 10° S 02:33:57 77° E 02:38:30 10° NNE
SAR-Lupe-1 4.1 02:33:59 10° N 02:37:33 73° WNW 02:41:06 10° SSW
Cosmos 1825 2.5 02:34:20 10° S 02:37:40 57° E 02:41:04 10° NNE
Sich 1 Rocket 3.6 02:33:53 10° NNW 02:38:25 73° W 02:42:50 10° S
Cosmos 2333 Rocket 2.5 02:33:04 10° NW 02:38:29 45° WSW 02:43:54 10° S
Cosmos 2098 Rocket 4.1 02:33:51 10° NNW 02:38:45 45° W 02:44:28 10° SSW
Cosmos 2151 Rocket 3.6 02:36:28 10° NNW 02:40:55 63° W 02:45:18 10° S
SL-27 R/B 3.1 02:40:26 11° SW 02:42:45 29° WNW 02:45:18 10° N
Cosmos 2322 Rocket 3.0 02:38:02 10° NW 02:42:52 30° WSW 02:47:42 10° SSW
YAOGAN 6 4.3 02:40:04 10° NE 02:43:01 29° E 02:45:55 10° SSE
Cosmos 1892 2.5 02:40:17 10° S 02:43:47 82° E 02:47:19 10° NNE
Cosmos 1025 Rocket 4.1 02:41:37 10° SSE 02:45:48 45° E 02:50:00 10° NNE
Cosmos 1242 Rocket 4.4 02:45:51 10° W 02:46:51 11° WNW 02:47:50 10° NW
Meteor 2-5 Rocket 4.2 02:43:29 10° SSW 02:49:14 52° WNW 02:55:04 10° N
SL-4 R/B 3.0 02:47:43 10° SW 02:51:48 41° SE 02:56:00 10° ENE
Cosmos 2297 Rocket 4.4 02:48:51 10° SSE 02:53:04 22° E 02:57:17 10° NE
Cosmos 1328 4.2 02:49:51 10° S 02:53:35 61° E 02:57:23 10° NNE
Okean 2 Rocket 3.3 02:49:30 10° NNW 02:53:46 50° W 02:58:02 10° S
Cosmos 1408 4.4 02:54:36 10° W 02:55:52 12° WNW 02:57:07 10° NW
Cosmos 2074 Rocket 4.1 02:50:14 10° SSW 02:56:24 63° WNW 03:02:35 10° N
Cosmos 1674 Rocket 3.8 02:53:32 10° SSW 02:57:54 58° WNW 03:02:18 10° N
ADEOS II 3.0 02:54:48 10° N 02:59:28 33° WNW 03:04:07 10° SW
Cosmos 1570 Rocket 4.2 02:54:55 10° NNW 03:00:05 54° WSW 03:05:16 10° S
